When you browse on this site, cookies collect data to enhance your experience and personalize the content and advertising you see.
Visit our Privacy Policy to learn more. By continuing to use the site, you agree to this use of cookies and data.
  • In Austria
  • List of Countries
  • For 7 days
  • Water Temperature
  • Weather Map
  • News
  • Weather Widgets
  • user-avatar
    Login

    Hourly Weather Tecozautla

    Today, 15 December, Sunday

    Time Temperature Precipitation Wind Pressure Humidity
    00:00 +16°C° 0 mm 1 mps 620 mmHg 45%
    01:00 +15°C° 0 mm 1 mps 620 mmHg 44%
    02:00 +15°C° 0 mm 1 mps 619 mmHg 43%
    03:00 +15°C° 0 mm 1 mps 619 mmHg 44%
    04:00 +14°C° 0 mm 1 mps 619 mmHg 45%
    05:00 +14°C° 0 mm 1 mps 619 mmHg 45%
    06:00 +16°C° 0 mm 1 mps 620 mmHg 43%
    07:00 +17°C° 0 mm 2 mps 621 mmHg 40%
    08:00 +19°C° 0 mm 2 mps 622 mmHg 38%
    09:00 +20°C° 0 mm 2 mps 623 mmHg 33%
    10:00 +23°C° 0 mm 2 mps 623 mmHg 29%
    11:00 +25°C° 0 mm 2 mps 623 mmHg 25%
    12:00 +25°C° 0 mm 2 mps 622 mmHg 23%
    13:00 +26°C° 0 mm 2 mps 622 mmHg 21%
    14:00 +27°C° 0 mm 2 mps 621 mmHg 19%
    15:00 +25°C° 0 mm 2 mps 621 mmHg 23%
    16:00 +24°C° 0 mm 2 mps 621 mmHg 26%
    17:00 +23°C° 0 mm 2 mps 620 mmHg 30%
    18:00 +21°C° 0 mm 2 mps 620 mmHg 33%
    19:00 +21°C° 0 mm 1 mps 621 mmHg 35%
    20:00 +20°C° 0 mm 1 mps 621 mmHg 38%
    21:00 +19°C° 0 mm 1 mps 621 mmHg 41%
    22:00 +18°C° 0 mm 2 mps 621 mmHg 45%
    23:00 +17°C° 0 mm 2 mps 621 mmHg 48%

    Tomorrow, 16 December, Monday

    Time Temperature Precipitation Wind Pressure Humidity
    00:00 +17°C° 0 mm 2 mps 620 mmHg 51%
    01:00 +16°C° 0 mm 2 mps 620 mmHg 54%
    02:00 +16°C° 0 mm 2 mps 620 mmHg 57%
    03:00 +15°C° 0 mm 2 mps 620 mmHg 58%
    04:00 +15°C° 0 mm 2 mps 620 mmHg 59%
    05:00 +14°C° 0 mm 2 mps 620 mmHg 60%
    06:00 +16°C° 0 mm 1 mps 620 mmHg 56%
    07:00 +18°C° 0 mm 1 mps 621 mmHg 53%
    08:00 +19°C° 0 mm 1 mps 622 mmHg 49%
    09:00 +21°C° 0 mm 1 mps 622 mmHg 45%
    10:00 +21°C° 0 mm 2 mps 622 mmHg 41%
    11:00 +24°C° 0 mm 2 mps 623 mmHg 36%
    12:00 +25°C° 0 mm 2 mps 622 mmHg 34%
    13:00 +25°C° 0 mm 2 mps 622 mmHg 31%
    14:00 +26°C° 0 mm 3 mps 621 mmHg 29%
    15:00 +25°C° 0 mm 3 mps 621 mmHg 31%
    16:00 +24°C° 0 mm 3 mps 621 mmHg 34%
    17:00 +23°C° 0 mm 2 mps 621 mmHg 36%
    18:00 +21°C° 0 mm 2 mps 621 mmHg 40%
    19:00 +20°C° 0 mm 2 mps 622 mmHg 44%
    20:00 +20°C° 0 mm 1 mps 622 mmHg 47%
    21:00 +19°C° 0 mm 1 mps 622 mmHg 52%
    22:00 +18°C° 0 mm 1 mps 622 mmHg 58%
    23:00 +18°C° 0 mm 1 mps 622 mmHg 63%

    Day after tomorrow, 17 December, Tuesday

    Time Temperature Precipitation Wind Pressure Humidity
    00:00 +16°C° 0 mm 1 mps 621 mmHg 65%
    01:00 +15°C° 0 mm 1 mps 621 mmHg 68%
    02:00 +15°C° 0 mm 1 mps 621 mmHg 71%
    03:00 +14°C° 0 mm 2 mps 621 mmHg 73%
    04:00 +14°C° 0 mm 2 mps 621 mmHg 76%
    05:00 +13°C° 0 mm 2 mps 621 mmHg 79%
    06:00 +13°C° 0 mm 2 mps 622 mmHg 78%
    07:00 +14°C° 0 mm 2 mps 622 mmHg 78%
    08:00 +13°C° 0 mm 3 mps 623 mmHg 77%
    09:00 +14°C° 0 mm 3 mps 623 mmHg 73%
    10:00 +16°C° 0 mm 3 mps 623 mmHg 68%
    11:00 +17°C° 0 mm 4 mps 623 mmHg 64%
    12:00 +18°C° 0 mm 4 mps 623 mmHg 64%
    13:00 +18°C° 0 mm 4 mps 622 mmHg 64%
    14:00 +17°C° 0 mm 5 mps 622 mmHg 64%
    15:00 +17°C° 0 mm 4 mps 622 mmHg 69%
    16:00 +14°C° 0 mm 4 mps 621 mmHg 74%
    17:00 +13°C° 0 mm 4 mps 621 mmHg 79%
    18:00 +12°C° 0 mm 4 mps 622 mmHg 78%
    19:00 +11°C° 0 mm 3 mps 622 mmHg 77%
    20:00 +11°C° 0 mm 3 mps 622 mmHg 76%
    21:00 +10°C° 0 mm 3 mps 622 mmHg 75%
    22:00 +9°C° 0 mm 3 mps 622 mmHg 73%
    23:00 +8°C° 0 mm 3 mps 622 mmHg 72%

    18 December, Wednesday

    Time Temperature Precipitation Wind Pressure Humidity
    00:00 +8°C° 0 mm 3 mps 622 mmHg 72%
    01:00 +7°C° 0 mm 3 mps 622 mmHg 73%
    02:00 +7°C° 0 mm 3 mps 621 mmHg 73%
    03:00 +5°C° 0 mm 3 mps 622 mmHg 74%
    04:00 +5°C° 0 mm 3 mps 622 mmHg 75%
    05:00 +6°C° 0 mm 2 mps 622 mmHg 76%
    06:00 +6°C° 0 mm 2 mps 622 mmHg 75%
    07:00 +6°C° 0 mm 2 mps 623 mmHg 74%
    08:00 +6°C° 0 mm 2 mps 623 mmHg 73%
    09:00 +8°C° 0 mm 3 mps 623 mmHg 69%
    10:00 +10°C° 0 mm 3 mps 623 mmHg 64%
    11:00 +11°C° 0 mm 3 mps 623 mmHg 59%
    12:00 +12°C° 0 mm 3 mps 623 mmHg 57%
    13:00 +13°C° 0 mm 4 mps 623 mmHg 54%
    14:00 +14°C° 0 mm 4 mps 622 mmHg 52%
    15:00 +13°C° 0 mm 4 mps 622 mmHg 54%
    16:00 +12°C° 0 mm 3 mps 622 mmHg 57%
    17:00 +11°C° 0 mm 3 mps 622 mmHg 59%
    18:00 +10°C° 0 mm 3 mps 622 mmHg 62%
    19:00 +9°C° 0 mm 3 mps 622 mmHg 65%
    20:00 +8°C° 0 mm 2 mps 622 mmHg 67%
    21:00 +7°C° 0 mm 2 mps 622 mmHg 69%
    22:00 +7°C° 0 mm 2 mps 622 mmHg 71%
    23:00 +6°C° 0 mm 2 mps 621 mmHg 73%

    19 December, Thursday

    Time Temperature Precipitation Wind Pressure Humidity
    00:00 +7°C° 0 mm 1 mps 621 mmHg 75%
    01:00 +7°C° 0 mm 1 mps 621 mmHg 77%
    02:00 +7°C° 0 mm 1 mps 620 mmHg 79%
    03:00 +7°C° 0 mm 1 mps 620 mmHg 81%
    04:00 +7°C° 0 mm 1 mps 620 mmHg 83%
    05:00 +7°C° 0 mm 1 mps 620 mmHg 85%
    06:00 +8°C° 0 mm 1 mps 621 mmHg 81%
    07:00 +9°C° 0 mm 1 mps 622 mmHg 76%
    08:00 +11°C° 0 mm 1 mps 623 mmHg 71%
    09:00 +13°C° 0 mm 1 mps 623 mmHg 64%
    10:00 +15°C° 0 mm 1 mps 623 mmHg 57%
    11:00 +19°C° 0 mm 1 mps 623 mmHg 50%
    12:00 +19°C° 0 mm 2 mps 623 mmHg 46%
    13:00 +20°C° 0 mm 2 mps 623 mmHg 43%
    14:00 +21°C° 0 mm 2 mps 622 mmHg 40%
    15:00 +20°C° 0 mm 2 mps 622 mmHg 44%
    16:00 +19°C° 0 mm 2 mps 622 mmHg 47%
    17:00 +18°C° 0 mm 2 mps 622 mmHg 51%
    18:00 +17°C° 0 mm 2 mps 622 mmHg 57%
    19:00 +16°C° 0 mm 1 mps 622 mmHg 63%
    20:00 +15°C° 0 mm 1 mps 622 mmHg 68%
    21:00 +14°C° 0 mm 1 mps 622 mmHg 70%
    22:00 +13°C° 0 mm 0 mps 622 mmHg 71%
    23:00 +13°C° 0 mm 0 mps 622 mmHg 72%

    20 December, Friday

    Time Temperature Precipitation Wind Pressure Humidity
    00:00 +12°C° 0 mm 0 mps 621 mmHg 72%
    01:00 +12°C° 0 mm 0 mps 621 mmHg 71%
    02:00 +12°C° 0 mm 0 mps 621 mmHg 71%
    03:00 +12°C° 0 mm 0 mps 621 mmHg 71%
    04:00 +12°C° 0 mm 0 mps 621 mmHg 72%
    05:00 +11°C° 0 mm 0 mps 621 mmHg 72%
    06:00 +13°C° 0 mm 0 mps 622 mmHg 67%
    07:00 +15°C° 0 mm 1 mps 623 mmHg 61%
    08:00 +18°C° 0 mm 1 mps 624 mmHg 55%
    09:00 +18°C° 0 mm 2 mps 625 mmHg 52%
    10:00 +19°C° 0 mm 3 mps 625 mmHg 48%
    11:00 +20°C° 0 mm 4 mps 625 mmHg 45%
    12:00 +19°C° 0 mm 4 mps 624 mmHg 45%
    13:00 +19°C° 0 mm 5 mps 624 mmHg 45%
    14:00 +19°C° 0 mm 5 mps 623 mmHg 46%
    15:00 +17°C° 0 mm 5 mps 624 mmHg 49%
    16:00 +16°C° 0 mm 5 mps 624 mmHg 53%
    17:00 +15°C° 0 mm 4 mps 624 mmHg 56%
    18:00 +14°C° 0 mm 4 mps 624 mmHg 60%
    19:00 +13°C° 0 mm 3 mps 624 mmHg 64%
    20:00 +14°C° 0 mm 2 mps 625 mmHg 68%
    21:00 +13°C° 0 mm 2 mps 625 mmHg 72%
    22:00 +12°C° 0 mm 2 mps 624 mmHg 76%
    23:00 +12°C° 0 mm 2 mps 624 mmHg 80%
    Show more